Stations météo

Publicité
Los Angeles/Int., Etats-Unis (72295): Température de l'air & dewpoint: 12.01.2018 21:00:00 - 18.01.2018 21:00:00 (PST)Los Angeles/Int., Etats-Unis (72295): Vitesse du vent: 12.01.2018 21:00:00 - 18.01.2018 21:00:00 (PST)Los Angeles/Int., Etats-Unis (72295): Direction du vent: 12.01.2018 21:00:00 - 18.01.2018 21:00:00 (PST)Los Angeles/Int., Etats-Unis (72295): reduced air pressure: 12.01.2018 21:00:00 - 18.01.2018 21:00:00 (PST)Los Angeles/Int., Etats-Unis (72295): visibility: 12.01.2018 21:00:00 - 18.01.2018 21:00:00 (PST)Los Angeles/Int., Etats-Unis (72295): Quantités de précipitations: 12.01.2018 21:00:00 - 18.01.2018 21:00:00 (PST)
Date & Time tt [°C] td [°C] ff [km/h] ff [knt] dd ppp [hPa] vv [km] rr [mm]
18.01.2018 21:00:00 15,6 14,4 11 6 W 1017,3 16 -
18.01.2018 20:00:00 16,1 15,0 8 4 SW 1016,8 16 -
18.01.2018 19:00:00 16,1 15,6 11 6 WSW 1016,6 10 -
18.01.2018 18:00:00 17,2 13,3 16 9 W 1016,5 16 -
18.01.2018 17:00:00 20,0 8,9 5 3 SSW 1016,2 16 -
18.01.2018 16:00:00 21,7 10,0 0 0 N 1016,5 16 -
18.01.2018 15:00:00 20,0 11,1 8 4 W 1016,9 16 -
18.01.2018 14:00:00 19,4 13,3 16 9 SW 1017,4 13 -
18.01.2018 13:00:00 20,0 12,8 16 9 W 1018,0 11 -
18.01.2018 12:00:00 21,1 13,3 18 10 W 1018,2 10 -
18.01.2018 11:00:00 21,1 9,4 0 0 N 1019,2 16 -
18.01.2018 10:00:00 19,4 7,2 8 4 ESE 1019,5 16 -
18.01.2018 09:00:00 16,7 8,9 8 4 ESE 1019,2 16 -
18.01.2018 08:00:00 14,4 7,8 8 4 ESE 1018,9 16 -
18.01.2018 07:00:00 14,4 7,8 8 4 E 1018,7 16 -
18.01.2018 06:00:00 13,3 8,9 5 3 E 1018,3 16 -
18.01.2018 05:00:00 12,8 8,9 0 0 N 1018,1 16 -
18.01.2018 04:00:00 13,9 9,4 0 0 N 1018,0 16 -
18.01.2018 03:00:00 15,0 10,0 0 0 N 1018,3 16 -
18.01.2018 02:00:00 15,6 8,3 8 4 ESE 1018,6 16 -
18.01.2018 01:00:00 16,7 8,9 5 3 E 1018,6 16 -
18.01.2018 00:00:00 17,8 9,4 0 0 N 1018,7 16 -
17.01.2018 23:00:00 17,8 12,2 9 5 - 1019,2 16 -
17.01.2018 22:00:00 16,7 13,9 0 0 N 1019,5 16 -
17.01.2018 21:00:00 16,7 13,9 0 0 N 1019,4 16 -
17.01.2018 20:00:00 16,7 13,9 8 4 W 1019,2 16 -
17.01.2018 19:00:00 16,7 13,3 9 5 SSW 1019,1 16 -
17.01.2018 18:00:00 16,7 13,3 8 4 WSW 1019,5 16 -
17.01.2018 17:00:00 17,8 12,8 8 4 WSW 1019,5 16 -
17.01.2018 16:00:00 18,9 11,1 16 9 W 1019,5 16 -
17.01.2018 15:00:00 18,9 13,3 16 9 W 1019,3 16 -
17.01.2018 14:00:00 20,0 13,9 15 8 W 1019,6 13 -
17.01.2018 13:00:00 19,4 14,4 18 10 W 1020,3 13 -
17.01.2018 12:00:00 20,0 13,3 18 10 W 1021,0 13 -
17.01.2018 11:00:00 22,2 7,8 5 3 ENE 1021,3 11 -
17.01.2018 10:00:00 19,4 8,9 9 5 ENE 1021,9 11 -
17.01.2018 09:00:00 17,8 10,0 0 0 N 1021,5 11 -
17.01.2018 08:00:00 15,6 11,7 0 0 N 1021,3 13 -
17.01.2018 07:00:00 13,3 11,7 5 3 - 1020,9 16 -
17.01.2018 06:00:00 13,9 12,8 0 0 N 1020,1 13 -
17.01.2018 05:00:00 12,8 12,8 0 0 N 1019,7 13 -
17.01.2018 04:00:00 13,3 13,3 0 0 N 1019,7 3,2 -
17.01.2018 03:00:00 13,3 12,8 0 0 N 1020,1 0,8 -
17.01.2018 02:00:00 13,9 13,3 9 5 - 1019,9 16 -
17.01.2018 01:00:00 15,0 13,3 8 4 NW 1020,1 16 -
17.01.2018 00:00:00 15,0 13,3 0 0 N 1020,5 16 -
16.01.2018 23:00:00 16,1 12,8 5 3 NNW 1020,8 16 -
16.01.2018 22:00:00 15,6 13,3 8 4 SE 1020,7 16 -
16.01.2018 21:00:00 15,6 13,3 0 0 N 1020,4 16 -
16.01.2018 20:00:00 16,1 13,3 0 0 N 1020,1 16 -
16.01.2018 19:00:00 16,1 13,3 15 8 W 1020,4 10 -
16.01.2018 18:00:00 16,1 13,3 21 11 W 1019,7 16 -
16.01.2018 17:00:00 16,7 12,8 13 7 W 1019,3 16 -
16.01.2018 16:00:00 17,2 11,7 15 8 W 1019,1 16 -
16.01.2018 15:00:00 17,8 12,8 18 10 W 1019,4 16 -
16.01.2018 14:00:00 18,9 14,4 16 9 W 1019,0 10 -
16.01.2018 13:00:00 20,0 14,4 9 5 WSW 1019,5 8 -
16.01.2018 12:00:00 18,9 15,0 0 0 N 1020,6 8 -
16.01.2018 11:00:00 18,3 14,4 8 4 SW 1021,2 6 -
16.01.2018 10:00:00 16,7 14,4 8 4 WNW 1021,6 4,8 0,0
16.01.2018 09:00:00 15,6 15,0 0 0 N 1020,7 4,0 -
16.01.2018 08:00:00 13,9 13,9 0 0 N 1020,4 4,0 -
16.01.2018 07:00:00 12,8 12,8 5 3 - 1020,4 4,8 -
16.01.2018 06:00:00 12,8 12,8 0 0 N 1019,9 0,8 -
16.01.2018 05:00:00 13,3 13,3 5 3 - 1019,7 0,8 -
16.01.2018 04:00:00 13,9 13,3 5 3 NE 1019,7 4,8 0,0
16.01.2018 03:00:00 13,3 12,8 0 0 N 1020,5 8 -
16.01.2018 02:00:00 12,8 12,8 8 4 ESE 1019,9 11 -
16.01.2018 01:00:00 14,4 13,9 15 8 W 1019,9 10 -
16.01.2018 00:00:00 14,4 14,4 11 6 W 1020,0 16 -
15.01.2018 23:00:00 15,0 14,4 15 8 W 1020,0 16 -
15.01.2018 22:00:00 15,0 13,9 22 12 W 1020,1 15 0,0
15.01.2018 21:00:00 15,6 13,3 21 11 W 1019,5 13 -
15.01.2018 20:00:00 16,1 11,1 0 0 N 1018,0 16 -
15.01.2018 19:00:00 15,6 13,3 5 3 - 1018,3 10 -
15.01.2018 18:00:00 15,0 12,8 9 5 WNW 1018,2 11 -
15.01.2018 17:00:00 15,0 12,8 11 6 WSW 1018,6 15 -
15.01.2018 16:00:00 16,1 12,2 16 9 W 1019,2 16 0,0
15.01.2018 15:00:00 16,7 12,2 16 9 W 1018,7 16 -
15.01.2018 14:00:00 16,1 12,2 13 7 W 1018,5 16 -
15.01.2018 13:00:00 15,6 12,2 15 8 W 1019,1 11 -
15.01.2018 12:00:00 15,6 12,2 16 9 W 1020,0 10 -
15.01.2018 11:00:00 17,2 12,8 16 9 W 1020,4 10 -
15.01.2018 10:00:00 16,7 9,4 13 7 W 1020,7 16 0,0
15.01.2018 09:00:00 16,7 5,0 8 4 SSE 1020,1 16 -
15.01.2018 08:00:00 13,9 5,6 5 3 E 1019,5 16 -
15.01.2018 07:00:00 12,2 5,6 8 4 E 1019,1 10 -
15.01.2018 06:00:00 12,8 6,1 0 0 N 1018,9 16 -
15.01.2018 05:00:00 12,2 5,6 0 0 N 1018,4 16 -
15.01.2018 04:00:00 12,8 5,6 0 0 N 1018,6 16 0,0
15.01.2018 03:00:00 14,4 5,6 0 0 N 1019,2 16 -
15.01.2018 02:00:00 15,0 6,1 5 3 N 1019,5 16 -
15.01.2018 01:00:00 14,4 6,1 8 4 ENE 1019,3 16 -
15.01.2018 00:00:00 15,0 7,2 8 4 E 1019,1 16 -
14.01.2018 23:00:00 16,7 7,2 8 4 E 1019,6 16 -
14.01.2018 22:00:00 18,3 7,8 0 0 N 1019,8 16 0,0
14.01.2018 21:00:00 18,3 6,7 0 0 N 1019,2 16 -
14.01.2018 20:00:00 19,4 3,3 5 3 - 1018,6 16 -
14.01.2018 19:00:00 20,0 6,1 5 3 SW 1018,2 16 -
14.01.2018 18:00:00 20,6 7,2 0 0 N 1018,5 16 -
14.01.2018 17:00:00 20,6 7,8 15 8 W 1019,0 16 -
14.01.2018 16:00:00 23,9 4,4 13 7 SW 1018,4 16 0,0
14.01.2018 15:00:00 25,6 2,2 15 8 WSW 1018,2 16 -
14.01.2018 14:00:00 28,3 -2,2 0 0 N 1018,1 16 -
14.01.2018 13:00:00 27,2 -1,1 8 4 - 1018,8 16 -
14.01.2018 12:00:00 26,7 0,6 11 6 NE 1019,8 16 -
14.01.2018 11:00:00 24,4 1,1 8 4 NNE 1021,1 16 -
14.01.2018 10:00:00 21,7 1,1 8 4 NE 1021,1 16 0,0
14.01.2018 09:00:00 20,6 0,6 18 10 NE 1020,5 16 -
14.01.2018 08:00:00 18,9 0,6 16 9 NNE 1020,0 16 -
14.01.2018 07:00:00 16,1 1,7 8 4 E 1019,6 16 -
14.01.2018 06:00:00 15,0 2,2 8 4 E 1019,1 16 -
14.01.2018 05:00:00 15,6 2,2 8 4 NE 1018,7 16 -
14.01.2018 04:00:00 17,2 0,6 0 0 N 1019,1 16 0,0
14.01.2018 03:00:00 15,6 2,2 9 5 NE 1019,2 16 -
14.01.2018 02:00:00 18,3 0,6 5 3 NNE 1019,1 16 -
14.01.2018 01:00:00 20,6 0,6 8 4 - 1019,0 16 -
14.01.2018 00:00:00 21,7 1,1 9 5 - 1019,3 16 -
13.01.2018 23:00:00 20,6 2,2 5 3 - 1019,2 16 -
13.01.2018 22:00:00 21,7 1,7 8 4 N 1019,5 16 0,0
13.01.2018 21:00:00 21,1 1,1 0 0 N 1019,1 16 -
13.01.2018 20:00:00 21,7 1,1 5 3 - 1018,7 16 -
13.01.2018 19:00:00 23,9 1,7 8 4 NNW 1018,3 16 -
13.01.2018 18:00:00 25,0 1,7 9 5 NNW 1018,1 16 -
13.01.2018 17:00:00 26,7 1,7 0 0 N 1017,6 16 -
13.01.2018 16:00:00 28,3 1,1 9 5 WNW 1017,6 16 0,0
13.01.2018 15:00:00 28,9 -1,7 9 5 WSW 1017,6 16 -
13.01.2018 14:00:00 28,9 -3,3 0 0 N 1017,8 16 -
13.01.2018 13:00:00 27,8 -0,6 5 3 S 1018,4 16 -
13.01.2018 12:00:00 27,8 -0,6 0 0 N 1019,5 16 -
13.01.2018 11:00:00 25,6 3,3 8 4 NNE 1020,8 16 -
13.01.2018 10:00:00 23,3 5,6 8 4 - 1021,3 16 0,0
13.01.2018 09:00:00 20,6 4,4 9 5 NE 1021,1 16 -
13.01.2018 08:00:00 16,1 5,0 8 4 NE 1020,5 16 -
13.01.2018 07:00:00 16,1 3,3 0 0 N 1020,0 16 -
13.01.2018 06:00:00 14,4 4,4 9 5 N 1019,6 16 -
13.01.2018 05:00:00 16,7 3,9 0 0 N 1019,1 16 -
13.01.2018 04:00:00 14,4 5,6 8 4 NNE 1019,2 16 0,0
13.01.2018 03:00:00 15,0 6,7 8 4 NE 1019,3 16 -
13.01.2018 02:00:00 16,7 7,8 5 3 - 1019,3 16 -
13.01.2018 01:00:00 14,4 10,6 0 0 N 1019,5 16 -
13.01.2018 00:00:00 15,6 9,4 8 4 E 1019,7 16 -
12.01.2018 23:00:00 17,2 12,2 5 3 - 1019,7 16 -
12.01.2018 22:00:00 15,6 13,3 0 0 N 1019,7 13 0,0
12.01.2018 21:00:00 14,4 12,8 0 0 N 1019,4 11 -

tt = Température de l'air
td = dewpoint
ff = Vitesse du vent
dd = Direction du vent
ppp = reduced air pressure
vv = visibility
rr = Quantités de précipitations

stations d'obs. à proximité